sat.trackr.live / text

‹ back to catalog

STRIX-4

NORAD 60352 · 2024-137A

PAYLOAD ACTIVE UNKNOWN

§ Identity

Operator
Country
JPN
Launch date
2024-08-02
Launch site
RLLB
Launch vehicle
Mass (kg)
RCS (m²)

External: N2YO · Heavens-Above · Gunter

§ Orbital elements

Epoch: 2026-09-22T22:54:33.276384Z

Period
93.79 min
Inclination
43.0151°
Eccentricity
0.0018312
Mean motion
15.35400636 rev/d
Perigee alt
447.2 km
Apogee alt
472.3 km
Semi-major
6,837.9 km
B*
3.7045e-4
RAAN
87.5787°
Arg perigee
233.2708°
Mean anomaly
126.6465°
Rev number
11,903

§ Raw data

STRIX-41 60352U 24137A   26265.95455181  .00012818  00000+0  37045-3 0  99932 60352  43.0151  87.5787 0018312 233.2708 126.6465 15.35400636119031

JSON: /api/v1/satellites/60352 · /tle

For live sub-satellite position, see the globe view (requires WebGL).

§ Visibility from observer

Set your observer location to see the next 7 days of passes ≥ 10°. The values pass through the URL so the page stays shareable.

No JS? Fill the form by hand. The geolocation button needs JavaScript.